Time,TemperatureF,DewpointF,PressureIn,WindDirection,WindDirectionDegrees,WindSpeedMPH,WindSpeedGustMPH,Humidity,HourlyPrecipIn,Conditions,Clouds,dailyrainin,SolarRadiationWatts/m^2,SoftwareType,DateUTC
2013-02-27 00:21:00,19.0,16.0,-100.00,West,280,0.0,5.0,89,0.00,,,0.17,0.000000,,2013-02-27 08:21:00,
2013-02-27 00:41:00,19.0,16.0,-100.00,West,280,0.0,5.0,89,0.00,,,0.17,0.000000,,2013-02-27 08:41:00,
2013-02-27 00:52:00,19.0,16.0,-100.00,West,280,0.0,5.0,89,0.00,,,0.17,0.000000,,2013-02-27 08:52:00,
2013-02-27 01:21:00,17.0,15.0,-100.00,West,267,0.0,5.0,90,0.00,,,0.17,0.000000,,2013-02-27 09:21:00,
2013-02-27 01:41:00,17.0,15.0,-100.00,West,267,0.0,5.0,90,0.00,,,0.17,0.000000,,2013-02-27 09:41:00,
2013-02-27 01:51:00,17.0,15.0,-100.00,West,267,0.0,5.0,90,0.00,,,0.17,0.000000,,2013-02-27 09:51:00,
2013-02-27 02:21:00,16.0,14.0,-100.00,WNW,288,1.0,5.0,91,0.00,,,0.17,0.000000,,2013-02-27 10:21:00,
2013-02-27 02:42:00,16.0,14.0,-100.00,WNW,288,1.0,5.0,91,0.00,,,0.17,0.000000,,2013-02-27 10:42:00,
2013-02-27 02:52:00,16.0,14.0,-100.00,WNW,288,1.0,5.0,91,0.00,,,0.17,0.000000,,2013-02-27 10:52:00,
2013-02-27 03:22:00,16.0,14.0,-100.00,West,274,1.0,6.0,91,0.00,,,-99.99,0.000000,,2013-02-27 11:22:00,
2013-02-27 03:41:00,16.0,14.0,-100.00,West,274,1.0,6.0,91,0.00,,,-99.99,0.000000,,2013-02-27 11:41:00,
2013-02-27 03:52:00,16.0,14.0,-100.00,West,274,1.0,6.0,91,0.00,,,-99.99,0.000000,,2013-02-27 11:52:00,
2013-02-27 04:22:00,14.0,11.0,-100.00,WNW,285,0.0,5.0,88,0.00,,,0.17,0.000000,,2013-02-27 12:22:00,
2013-02-27 04:42:00,14.0,11.0,-100.00,WNW,285,0.0,5.0,88,0.00,,,0.17,0.000000,,2013-02-27 12:42:00,
2013-02-27 04:52:00,14.0,11.0,-100.00,WNW,285,0.0,5.0,88,0.00,,,0.17,0.000000,,2013-02-27 12:52:00,
2013-02-27 05:22:00,15.0,13.0,-100.00,WNW,293,0.0,5.0,90,0.00,,,0.17,0.000000,,2013-02-27 13:22:00,
2013-02-27 05:42:00,15.0,13.0,-100.00,WNW,293,0.0,5.0,90,0.00,,,0.17,0.000000,,2013-02-27 13:42:00,
2013-02-27 05:52:00,15.0,13.0,-100.00,WNW,293,0.0,5.0,90,0.00,,,0.17,0.000000,,2013-02-27 13:52:00,
2013-02-27 06:21:00,16.0,14.0,-100.00,WNW,286,0.0,4.0,90,0.00,,,0.17,0.000000,,2013-02-27 14:21:00,
2013-02-27 06:42:00,16.0,14.0,-100.00,WNW,286,0.0,4.0,90,0.00,,,0.17,0.000000,,2013-02-27 14:42:00,
2013-02-27 06:52:00,16.0,14.0,-100.00,WNW,286,0.0,4.0,90,0.00,,,0.17,0.000000,,2013-02-27 14:52:00,
2013-02-27 07:22:00,19.0,17.0,-100.00,WNW,282,0.0,5.0,91,0.00,,,0.17,0.000000,,2013-02-27 15:22:00,
2013-02-27 07:42:00,19.0,17.0,-100.00,WNW,282,0.0,5.0,91,0.00,,,0.17,0.000000,,2013-02-27 15:42:00,
2013-02-27 07:51:00,19.0,17.0,-100.00,WNW,282,0.0,5.0,91,0.00,,,0.17,0.000000,,2013-02-27 15:51:00,
2013-02-27 08:22:00,23.0,19.0,-100.00,West,267,0.0,6.0,86,0.00,,,0.17,11.000000,,2013-02-27 16:22:00,
2013-02-27 08:32:00,23.0,19.0,-100.00,West,267,0.0,6.0,86,0.00,,,0.17,11.000000,,2013-02-27 16:32:00,
2013-02-27 08:42:00,23.0,19.0,-100.00,West,267,0.0,6.0,86,0.00,,,0.17,11.000000,,2013-02-27 16:42:00,
2013-02-27 08:52:00,23.0,19.0,-100.00,West,267,0.0,6.0,86,0.00,,,0.17,11.000000,,2013-02-27 16:52:00,
2013-02-27 09:21:00,27.0,23.0,-100.00,WSW,256,0.0,5.0,84,0.00,,,0.17,49.000000,,2013-02-27 17:21:00,
2013-02-27 09:32:00,27.0,23.0,-100.00,WSW,256,0.0,5.0,84,0.00,,,0.17,49.000000,,2013-02-27 17:32:00,
2013-02-27 09:41:00,27.0,23.0,-100.00,WSW,256,0.0,5.0,84,0.00,,,0.17,49.000000,,2013-02-27 17:41:00,
2013-02-27 09:52:00,27.0,23.0,-100.00,WSW,256,0.0,5.0,84,0.00,,,0.17,49.000000,,2013-02-27 17:52:00,
2013-02-27 10:22:00,32.0,26.0,-100.00,West,274,0.0,8.0,79,0.00,,,-99.99,100.000000,,2013-02-27 18:22:00,
2013-02-27 10:32:00,32.0,26.0,-100.00,West,274,0.0,8.0,79,0.00,,,-99.99,100.000000,,2013-02-27 18:32:00,
2013-02-27 10:42:00,32.0,26.0,-100.00,West,274,0.0,8.0,79,0.00,,,-99.99,100.000000,,2013-02-27 18:42:00,
2013-02-27 10:51:00,32.0,26.0,-100.00,West,274,0.0,8.0,79,0.00,,,-99.99,100.000000,,2013-02-27 18:51:00,
2013-02-27 11:21:00,38.0,28.0,-100.00,South,190,0.0,5.0,66,0.00,,,0.17,168.000000,,2013-02-27 19:21:00,
2013-02-27 11:51:00,38.0,28.0,-100.00,South,190,0.0,5.0,66,0.00,,,0.17,168.000000,,2013-02-27 19:51:00,
2013-02-27 12:21:00,43.0,27.0,-100.00,West,265,0.0,7.0,53,0.01,,,0.18,313.000000,,2013-02-27 20:21:00,
2013-02-27 12:32:00,43.0,27.0,-100.00,West,265,0.0,7.0,53,0.01,,,0.18,313.000000,,2013-02-27 20:32:00,
2013-02-27 13:21:00,36.0,27.0,-100.00,NE,55,0.0,7.0,69,0.02,,,0.19,263.000000,,2013-02-27 21:21:00,
2013-02-27 13:31:00,36.0,27.0,-100.00,NE,55,0.0,7.0,69,0.02,,,0.19,263.000000,,2013-02-27 21:31:00,
2013-02-27 13:42:00,36.0,27.0,-100.00,NE,55,0.0,7.0,69,0.02,,,0.19,263.000000,,2013-02-27 21:42:00,
2013-02-27 13:51:00,36.0,27.0,-100.00,NE,55,0.0,7.0,69,0.02,,,0.19,263.000000,,2013-02-27 21:51:00,
2013-02-27 14:21:00,37.0,32.0,-100.00,NW,312,0.0,5.0,81,0.03,,,0.18,134.000000,,2013-02-27 22:21:00,
2013-02-27 14:31:00,37.0,32.0,-100.00,NW,312,0.0,5.0,81,0.03,,,0.18,134.000000,,2013-02-27 22:31:00,
2013-02-27 14:41:00,37.0,32.0,-100.00,NW,312,0.0,5.0,81,0.03,,,0.18,134.000000,,2013-02-27 22:41:00,
2013-02-27 14:51:00,37.0,32.0,-100.00,NW,312,0.0,5.0,81,0.03,,,0.18,134.000000,,2013-02-27 22:51:00,
2013-02-27 15:21:00,35.0,30.0,-100.00,West,281,0.0,7.0,81,0.02,,,0.13,108.000000,,2013-02-27 23:21:00,
2013-02-27 15:31:00,35.0,30.0,-100.00,West,281,0.0,7.0,81,0.02,,,0.13,108.000000,,2013-02-27 23:31:00,
2013-02-27 15:42:00,35.0,30.0,-100.00,West,281,0.0,7.0,81,0.02,,,0.13,108.000000,,2013-02-27 23:42:00,
2013-02-27 15:52:00,35.0,30.0,-100.00,West,281,0.0,7.0,81,0.02,,,0.13,108.000000,,2013-02-27 23:52:00,
2013-02-27 16:21:00,36.0,29.0,-100.00,WNW,296,0.0,7.0,77,0.03,,,0.13,88.000000,,2013-02-28 00:21:00,
2013-02-27 16:32:00,36.0,29.0,-100.00,WNW,296,0.0,7.0,77,0.03,,,0.13,88.000000,,2013-02-28 00:32:00,
2013-02-27 16:42:00,36.0,29.0,-100.00,WNW,296,0.0,7.0,77,0.03,,,0.13,88.000000,,2013-02-28 00:42:00,
2013-02-27 16:51:00,36.0,29.0,-100.00,WNW,296,0.0,7.0,77,0.03,,,0.13,88.000000,,2013-02-28 00:51:00,
2013-02-27 17:21:00,36.0,29.0,-100.00,WNW,295,0.0,6.0,76,0.02,,,0.13,82.000000,,2013-02-28 01:21:00,
2013-02-27 17:31:00,36.0,29.0,-100.00,WNW,295,0.0,6.0,76,0.02,,,0.13,82.000000,,2013-02-28 01:31:00,
2013-02-27 17:41:00,36.0,29.0,-100.00,WNW,295,0.0,6.0,76,0.02,,,0.13,82.000000,,2013-02-28 01:41:00,
2013-02-27 17:51:00,36.0,29.0,-100.00,WNW,295,0.0,6.0,76,0.02,,,0.13,82.000000,,2013-02-28 01:51:00,
2013-02-27 18:22:00,32.0,27.0,-100.00,WNW,296,0.0,6.0,83,0.01,,,0.14,21.000000,,2013-02-28 02:22:00,
2013-02-27 18:31:00,32.0,27.0,-100.00,WNW,296,0.0,6.0,83,0.01,,,0.14,21.000000,,2013-02-28 02:31:00,
2013-02-27 18:41:00,32.0,27.0,-100.00,WNW,296,0.0,6.0,83,0.01,,,0.14,21.000000,,2013-02-28 02:41:00,
2013-02-27 18:51:00,32.0,27.0,-100.00,WNW,296,0.0,6.0,83,0.01,,,0.14,21.000000,,2013-02-28 02:51:00,
2013-02-27 19:21:00,32.0,28.0,-100.00,WNW,289,0.0,3.0,86,0.01,,,0.15,0.000000,,2013-02-28 03:21:00,
2013-02-27 19:31:00,32.0,28.0,-100.00,WNW,289,0.0,3.0,86,0.01,,,0.15,0.000000,,2013-02-28 03:31:00,
2013-02-27 19:41:00,32.0,28.0,-100.00,WNW,289,0.0,3.0,86,0.01,,,0.15,0.000000,,2013-02-28 03:41:00,
2013-02-27 19:51:00,32.0,28.0,-100.00,WNW,289,0.0,3.0,86,0.01,,,0.15,0.000000,,2013-02-28 03:51:00,
2013-02-27 20:21:00,32.0,29.0,-100.00,West,259,0.0,6.0,89,0.00,,,0.15,0.000000,,2013-02-28 04:21:00,
2013-02-27 20:31:00,32.0,29.0,-100.00,West,259,0.0,6.0,89,0.00,,,0.15,0.000000,,2013-02-28 04:31:00,
2013-02-27 20:41:00,32.0,29.0,-100.00,West,259,0.0,6.0,89,0.00,,,0.15,0.000000,,2013-02-28 04:41:00,
2013-02-27 20:51:00,32.0,29.0,-100.00,West,259,0.0,6.0,89,0.00,,,0.15,0.000000,,2013-02-28 04:51:00,
2013-02-27 21:22:00,32.0,29.0,-100.00,WNW,299,0.0,4.0,90,0.00,,,0.15,0.000000,,2013-02-28 05:22:00,
2013-02-27 21:31:00,32.0,29.0,-100.00,WNW,299,0.0,4.0,90,0.00,,,0.15,0.000000,,2013-02-28 05:31:00,
2013-02-27 21:42:00,32.0,29.0,-100.00,WNW,299,0.0,4.0,90,0.00,,,0.15,0.000000,,2013-02-28 05:42:00,
2013-02-27 21:51:00,32.0,29.0,-100.00,WNW,299,0.0,4.0,90,0.00,,,0.15,0.000000,,2013-02-28 05:51:00,
2013-02-27 22:22:00,31.0,29.0,-100.00,SSE,161,0.0,3.0,93,0.00,,,0.15,0.000000,,2013-02-28 06:22:00,
2013-02-27 22:32:00,31.0,29.0,-100.00,SSE,161,0.0,3.0,93,0.00,,,0.15,0.000000,,2013-02-28 06:32:00,
2013-02-27 22:41:00,31.0,29.0,-100.00,SSE,161,0.0,3.0,93,0.00,,,0.15,0.000000,,2013-02-28 06:41:00,
2013-02-27 22:51:00,31.0,29.0,-100.00,SSE,161,0.0,3.0,93,0.00,,,0.15,0.000000,,2013-02-28 06:51:00,
2013-02-27 23:21:00,32.0,29.0,-100.00,NE,40,0.0,5.0,90,0.00,,,0.15,0.000000,,2013-02-28 07:21:00,
2013-02-27 23:31:00,32.0,29.0,-100.00,NE,40,0.0,5.0,90,0.00,,,0.15,0.000000,,2013-02-28 07:31:00,
2013-02-27 23:41:00,32.0,29.0,-100.00,NE,40,0.0,5.0,90,0.00,,,0.15,0.000000,,2013-02-28 07:41:00,
2013-02-27 23:51:00,32.0,29.0,-100.00,NE,40,0.0,5.0,90,0.00,,,0.15,0.000000,,2013-02-28 07:51:00,